Погода в Юбилейном

Россия / Забайкальский край     50°16′06″N   118°21′34″E
темп.,
°C
ветер,
м/с
пор.,
м/с
влажн.,
%
обл.,
%
осадки,
мм/ч
давл.,
гПа
погр.,
м
18 октября, пн
пн1800:00−11зсз119627 0.0 102511
03:00−12зсз11949 0.0 102610
06:00−13зсз11945 0.0 102810
09:00−10зсз118654 0.0 102933
12:00−3сз12715 0.0 1028213
15:00−1сз23714 0.0 1027434
18:00−5ююз11855 0.0 102910
21:00−9з11915 0.0 103210
19 октября, вт
вт1900:00−10зюз11925 0.0 103210
03:00−11юз22915 0.0 103211
06:00−11юз12915 0.0 103111
09:00−7юз22875 0.0 103050
12:000зюз36772 0.0 1026302
15:00+2з38845 0.0 1024413
18:00−3юз22900 0.0 102510
21:00−6з11905 0.0 102610
20 октября, ср
ср2000:00−7зсз11915 0.0 102710
03:00−8сз00925 0.0 102710
06:00−8с00935 0.0 102710
09:00−6всв00895 0.0 102729
12:00−1всв00795 0.0 1025166
15:000св108163 0.0 1024244
18:00−3св1192100 0.0 102510
21:00−4ссз1196100 0.0 102610
21 октября, чт
чт2100:00−4сз119555 0.0 102611
03:00−6зсз11956 0.0 102711
06:00−6з11945 0.0 102710
09:00−5з11895 0.0 102832
12:00+1з12720 0.0 1026185
15:00+3зюз23710 0.0 1025259
18:00−1ююз22835 0.0 102610
21:00−3зюз228370 0.0 102612
22 октября, пт
пт2200:00−3зюз11834 0.0 102710
03:00−4зюз22853 0.0 102611
06:00−4юз22875 0.0 102612
09:00−2юз22845 0.0 102551
12:00+3зюз36715 0.0 1023290
15:00+6зюз48655 0.0 1021490
18:00+2юз33735 0.0 102014
21:00+1юз22735 0.0 102111